Time,TemperatureF,DewpointF,PressureIn,WindDirection,WindDirectionDegrees,WindSpeedMPH,WindSpeedGustMPH,Humidity,HourlyPrecipIn,Conditions,Clouds,dailyrainin,SoftwareType,DateUTC
2013-04-24 00:12:00,46.1,45.0,29.81,NE,38,3.0,9.0,96,0.09,,,0.03,weatherlink.com 1.10,2013-04-24 04:12:00,
2013-04-24 00:27:00,45.1,44.0,29.80,NNW,336,3.0,12.0,95,0.08,,,0.04,weatherlink.com 1.10,2013-04-24 04:27:00,
2013-04-24 00:42:00,44.5,44.0,29.81,NW,309,3.0,11.0,96,0.07,,,0.05,weatherlink.com 1.10,2013-04-24 04:42:00,
2013-04-24 00:57:00,44.2,43.0,29.80,NNE,27,0.0,8.0,95,0.07,,,0.06,weatherlink.com 1.10,2013-04-24 04:57:00,
2013-04-24 01:12:00,43.0,42.0,29.79,NNE,15,6.0,10.0,95,0.05,,,0.08,weatherlink.com 1.10,2013-04-24 05:12:00,
2013-04-24 01:27:00,42.6,42.0,29.79,NNW,347,1.0,6.0,96,0.05,,,0.09,weatherlink.com 1.10,2013-04-24 05:27:00,
2013-04-24 01:42:00,42.4,41.0,29.80,NW,316,5.0,8.0,96,0.07,,,0.12,weatherlink.com 1.10,2013-04-24 05:42:00,
2013-04-24 01:57:00,42.2,41.0,29.80,West,274,4.0,8.0,96,0.07,,,0.13,weatherlink.com 1.10,2013-04-24 05:57:00,
2013-04-24 02:12:00,41.5,41.0,29.80,NNW,338,4.0,9.0,96,0.08,,,0.16,weatherlink.com 1.10,2013-04-24 06:12:00,
2013-04-24 02:28:00,40.8,40.0,29.79,NNE,12,4.0,9.0,96,0.09,,,0.18,weatherlink.com 1.10,2013-04-24 06:28:00,
2013-04-24 02:43:00,40.6,40.0,29.79,North,349,2.0,8.0,96,0.07,,,0.19,weatherlink.com 1.10,2013-04-24 06:43:00,
2013-04-24 02:58:00,40.3,39.0,29.78,SSE,161,1.0,10.0,96,0.09,,,0.23,weatherlink.com 1.10,2013-04-24 06:58:00,
2013-04-24 03:13:00,39.6,39.0,29.78,NE,37,1.0,11.0,96,0.09,,,0.25,weatherlink.com 1.10,2013-04-24 07:13:00,
2013-04-24 03:28:00,39.0,38.0,29.79,NW,306,7.0,12.0,96,0.09,,,0.27,weatherlink.com 1.10,2013-04-24 07:28:00,
2013-04-24 03:43:00,38.3,37.0,29.78,NE,38,4.0,14.0,96,0.08,,,0.27,weatherlink.com 1.10,2013-04-24 07:43:00,
2013-04-24 03:58:00,37.9,37.0,29.80,NW,306,5.0,9.0,96,0.06,,,0.29,weatherlink.com 1.10,2013-04-24 07:58:00,
2013-04-24 04:13:00,37.5,37.0,29.80,NNE,18,3.0,10.0,96,0.06,,,0.31,weatherlink.com 1.10,2013-04-24 08:13:00,
2013-04-24 04:28:00,37.2,36.0,29.80,North,352,2.0,11.0,96,0.05,,,0.32,weatherlink.com 1.10,2013-04-24 08:28:00,
2013-04-24 04:43:00,36.8,36.0,29.82,NNE,32,0.0,11.0,96,0.06,,,0.33,weatherlink.com 1.10,2013-04-24 08:43:00,
2013-04-24 04:58:00,36.3,35.0,29.80,NNE,18,2.0,9.0,96,0.07,,,0.36,weatherlink.com 1.10,2013-04-24 08:58:00,
2013-04-24 05:13:00,35.8,35.0,29.81,NNW,348,7.0,11.0,96,0.05,,,0.36,weatherlink.com 1.10,2013-04-24 09:13:00,
2013-04-24 05:28:00,35.6,35.0,29.82,NNW,340,7.0,13.0,96,0.03,,,0.36,weatherlink.com 1.10,2013-04-24 09:28:00,
2013-04-24 05:43:00,35.3,34.0,29.82,North,10,3.0,10.0,95,0.03,,,0.36,weatherlink.com 1.10,2013-04-24 09:43:00,
2013-04-24 05:58:00,34.9,34.0,29.82,WNW,303,2.0,9.0,95,0.01,,,0.37,weatherlink.com 1.10,2013-04-24 09:58:00,
2013-04-24 06:13:00,34.8,34.0,29.82,NW,308,4.0,9.0,95,0.01,,,0.37,weatherlink.com 1.10,2013-04-24 10:13:00,
2013-04-24 06:28:00,34.3,33.0,29.82,NE,37,5.0,12.0,95,0.01,,,0.37,weatherlink.com 1.10,2013-04-24 10:28:00,
2013-04-24 06:43:00,33.9,33.0,29.83,NW,311,2.0,11.0,95,0.01,,,0.37,weatherlink.com 1.10,2013-04-24 10:43:00,
2013-04-24 06:58:00,33.7,33.0,29.83,NNW,343,1.0,10.0,95,0.00,,,0.37,weatherlink.com 1.10,2013-04-24 10:58:00,
2013-04-24 07:13:00,33.7,33.0,29.83,NNW,342,1.0,12.0,96,0.00,,,0.37,weatherlink.com 1.10,2013-04-24 11:13:00,
2013-04-24 07:28:00,33.5,33.0,29.85,NNW,329,4.0,11.0,96,0.00,,,0.37,weatherlink.com 1.10,2013-04-24 11:28:00,
2013-04-24 07:43:00,33.5,33.0,29.85,NNW,330,6.0,11.0,96,0.00,,,0.37,weatherlink.com 1.10,2013-04-24 11:43:00,
2013-04-24 07:58:00,33.6,33.0,29.85,NW,319,1.0,10.0,96,0.00,,,0.37,weatherlink.com 1.10,2013-04-24 11:58:00,
2013-04-24 08:13:00,33.5,33.0,29.86,NW,312,3.0,6.0,96,0.01,,,0.38,weatherlink.com 1.10,2013-04-24 12:13:00,
2013-04-24 08:28:00,33.5,33.0,29.85,NW,319,7.0,11.0,96,0.01,,,0.38,weatherlink.com 1.10,2013-04-24 12:28:00,
2013-04-24 08:43:00,33.3,32.0,29.84,NNE,33,3.0,9.0,96,0.01,,,0.38,weatherlink.com 1.10,2013-04-24 12:43:00,
2013-04-24 08:58:00,33.4,32.0,29.84,NW,322,5.0,10.0,96,0.01,,,0.38,weatherlink.com 1.10,2013-04-24 12:58:00,
2013-04-24 09:13:00,33.5,33.0,29.84,NW,312,3.0,9.0,96,0.00,,,0.38,weatherlink.com 1.10,2013-04-24 13:13:00,
2013-04-24 09:28:00,33.7,33.0,29.85,WNW,300,2.0,7.0,96,0.00,,,0.38,weatherlink.com 1.10,2013-04-24 13:28:00,
2013-04-24 09:43:00,33.7,33.0,29.84,NNW,328,4.0,9.0,95,0.00,,,0.38,weatherlink.com 1.10,2013-04-24 13:43:00,
2013-04-24 09:58:00,33.8,33.0,29.84,NNE,12,9.0,9.0,95,0.00,,,0.38,weatherlink.com 1.10,2013-04-24 13:58:00,
2013-04-24 10:14:00,33.7,33.0,29.83,NNW,340,1.0,8.0,96,0.00,,,0.38,weatherlink.com 1.10,2013-04-24 14:14:00,
2013-04-24 10:29:00,33.8,33.0,29.84,NW,321,3.0,10.0,96,0.00,,,0.38,weatherlink.com 1.10,2013-04-24 14:29:00,
2013-04-24 10:44:00,34.1,33.0,29.84,NNW,343,4.0,10.0,96,0.00,,,0.38,weatherlink.com 1.10,2013-04-24 14:44:00,
2013-04-24 10:59:00,34.3,33.0,29.83,NW,311,5.0,11.0,94,0.00,,,0.38,weatherlink.com 1.10,2013-04-24 14:59:00,
2013-04-24 11:14:00,34.5,33.0,29.84,NNW,338,2.0,12.0,93,0.00,,,0.38,weatherlink.com 1.10,2013-04-24 15:14:00,
2013-04-24 11:29:00,34.6,33.0,29.84,NNW,346,5.0,10.0,93,0.00,,,0.38,weatherlink.com 1.10,2013-04-24 15:29:00,
2013-04-24 11:44:00,34.8,33.0,29.85,WNW,303,5.0,11.0,92,0.00,,,0.38,weatherlink.com 1.10,2013-04-24 15:44:00,
2013-04-24 11:59:00,35.0,33.0,29.86,NW,315,6.0,15.0,91,0.00,,,0.38,weatherlink.com 1.10,2013-04-24 15:59:00,
2013-04-24 12:14:00,35.3,33.0,29.87,NNW,342,5.0,11.0,91,0.00,,,0.38,weatherlink.com 1.10,2013-04-24 16:14:00,
2013-04-24 12:29:00,35.2,33.0,29.87,NW,314,6.0,11.0,91,0.00,,,0.38,weatherlink.com 1.10,2013-04-24 16:29:00,
2013-04-24 12:44:00,34.7,33.0,29.86,NW,316,4.0,9.0,94,0.01,,,0.39,weatherlink.com 1.10,2013-04-24 16:44:00,
2013-04-24 12:59:00,33.8,33.0,29.86,NNW,333,4.0,12.0,95,0.01,,,0.39,weatherlink.com 1.10,2013-04-24 16:59:00,
2013-04-24 13:14:00,33.9,33.0,29.86,WNW,290,6.0,10.0,96,0.02,,,0.40,weatherlink.com 1.10,2013-04-24 17:14:00,
2013-04-24 13:29:00,34.6,34.0,29.86,NW,312,5.0,12.0,97,0.03,,,0.41,weatherlink.com 1.10,2013-04-24 17:29:00,
2013-04-24 13:44:00,34.9,34.0,29.87,WNW,295,3.0,11.0,96,0.02,,,0.41,weatherlink.com 1.10,2013-04-24 17:44:00,
2013-04-24 13:59:00,35.8,35.0,29.87,WNW,284,2.0,7.0,96,0.02,,,0.41,weatherlink.com 1.10,2013-04-24 17:59:00,
2013-04-24 14:14:00,37.0,36.0,29.87,WNW,302,3.0,6.0,95,0.01,,,0.41,weatherlink.com 1.10,2013-04-24 18:14:00,
2013-04-24 14:29:00,37.3,35.0,29.87,West,264,3.0,9.0,91,0.00,,,0.41,weatherlink.com 1.10,2013-04-24 18:29:00,
2013-04-24 14:44:00,37.7,35.0,29.87,WNW,294,4.0,10.0,91,0.00,,,0.41,weatherlink.com 1.10,2013-04-24 18:44:00,
2013-04-24 14:59:00,37.7,35.0,29.87,WNW,302,12.0,15.0,89,0.00,,,0.41,weatherlink.com 1.10,2013-04-24 18:59:00,
2013-04-24 15:14:00,37.3,35.0,29.88,WNW,284,3.0,10.0,91,0.01,,,0.42,weatherlink.com 1.10,2013-04-24 19:14:00,
2013-04-24 15:29:00,37.8,36.0,29.88,West,271,2.0,6.0,91,0.01,,,0.42,weatherlink.com 1.10,2013-04-24 19:29:00,
2013-04-24 15:44:00,38.6,35.0,29.89,WNW,295,6.0,11.0,88,0.01,,,0.42,weatherlink.com 1.10,2013-04-24 19:44:00,
2013-04-24 15:59:00,39.6,36.0,29.89,NW,316,7.0,14.0,85,0.01,,,0.42,weatherlink.com 1.10,2013-04-24 19:59:00,
2013-04-24 16:14:00,40.1,35.0,29.90,WNW,288,5.0,13.0,82,0.00,,,0.42,weatherlink.com 1.10,2013-04-24 20:14:00,
2013-04-24 16:29:00,40.6,35.0,29.90,WNW,296,4.0,15.0,81,0.00,,,0.42,weatherlink.com 1.10,2013-04-24 20:29:00,
2013-04-24 16:44:00,40.8,34.0,29.91,WNW,291,9.0,17.0,78,0.00,,,0.42,weatherlink.com 1.10,2013-04-24 20:44:00,
2013-04-24 16:59:00,41.3,35.0,29.91,WSW,258,5.0,14.0,78,0.00,,,0.42,weatherlink.com 1.10,2013-04-24 20:59:00,
2013-04-24 17:14:00,42.1,33.0,29.93,WNW,296,11.0,19.0,70,0.00,,,0.42,weatherlink.com 1.10,2013-04-24 21:14:00,
2013-04-24 17:29:00,42.2,34.0,29.93,WNW,302,8.0,15.0,74,0.00,,,0.42,weatherlink.com 1.10,2013-04-24 21:29:00,
2013-04-24 17:44:00,42.2,34.0,29.94,WSW,243,6.0,14.0,73,0.00,,,0.42,weatherlink.com 1.10,2013-04-24 21:44:00,
2013-04-24 17:59:00,42.3,34.0,29.94,WNW,301,11.0,14.0,73,0.00,,,0.42,weatherlink.com 1.10,2013-04-24 21:59:00,
2013-04-24 18:14:00,43.8,35.0,29.95,West,270,11.0,14.0,70,0.00,,,0.42,weatherlink.com 1.10,2013-04-24 22:14:00,
2013-04-24 18:29:00,44.1,32.0,29.95,WNW,293,8.0,15.0,63,0.00,,,0.42,weatherlink.com 1.10,2013-04-24 22:29:00,
2013-04-24 18:44:00,43.4,32.0,29.96,WNW,296,3.0,12.0,65,0.00,,,0.42,weatherlink.com 1.10,2013-04-24 22:44:00,
2013-04-24 18:59:00,44.6,33.0,29.96,WNW,296,4.0,13.0,63,0.00,,,0.42,weatherlink.com 1.10,2013-04-24 22:59:00,
2013-04-24 19:14:00,45.0,33.0,29.96,WNW,284,4.0,12.0,62,0.00,,,0.42,weatherlink.com 1.10,2013-04-24 23:14:00,
2013-04-24 19:29:00,45.0,31.0,29.97,WNW,300,4.0,10.0,58,0.00,,,0.42,weatherlink.com 1.10,2013-04-24 23:29:00,
2013-04-24 19:44:00,44.3,31.0,29.97,WNW,284,5.0,10.0,59,0.00,,,0.42,weatherlink.com 1.10,2013-04-24 23:44:00,
2013-04-24 19:59:00,43.5,30.0,29.98,WNW,287,3.0,9.0,60,0.00,,,0.42,weatherlink.com 1.10,2013-04-24 23:59:00,
2013-04-24 20:14:00,43.3,31.0,29.98,WSW,255,1.0,6.0,62,0.00,,,0.42,weatherlink.com 1.10,2013-04-25 00:14:00,
2013-04-24 20:29:00,42.4,31.0,29.99,West,277,5.0,6.0,65,0.00,,,0.42,weatherlink.com 1.10,2013-04-25 00:29:00,
2013-04-24 20:45:00,41.8,31.0,30.00,SW,233,5.0,6.0,65,0.00,,,0.42,weatherlink.com 1.10,2013-04-25 00:45:00,
2013-04-24 21:00:00,41.1,31.0,30.02,West,260,5.0,9.0,67,0.00,,,0.42,weatherlink.com 1.10,2013-04-25 01:00:00,
2013-04-24 21:15:00,41.0,30.0,30.03,WNW,287,3.0,9.0,66,0.00,,,0.42,weatherlink.com 1.10,2013-04-25 01:15:00,
2013-04-24 21:30:00,40.7,29.0,30.04,WSW,248,2.0,8.0,64,0.00,,,0.42,weatherlink.com 1.10,2013-04-25 01:30:00,
2013-04-24 21:45:00,40.3,29.0,30.05,WNW,284,4.0,8.0,64,0.00,,,0.42,weatherlink.com 1.10,2013-04-25 01:45:00,
2013-04-24 22:00:00,39.8,28.0,30.05,WNW,285,3.0,7.0,64,0.00,,,0.42,weatherlink.com 1.10,2013-04-25 02:00:00,
2013-04-24 22:15:00,39.4,28.0,30.06,WSW,245,6.0,6.0,64,0.00,,,0.42,weatherlink.com 1.10,2013-04-25 02:15:00,
2013-04-24 22:30:00,38.7,28.0,30.07,WSW,248,2.0,5.0,66,0.00,,,0.42,weatherlink.com 1.10,2013-04-25 02:30:00,
2013-04-24 22:45:00,37.9,29.0,30.07,WSW,243,3.0,6.0,69,0.00,,,0.42,weatherlink.com 1.10,2013-04-25 02:45:00,
2013-04-24 23:00:00,38.0,29.0,30.08,West,278,3.0,11.0,69,0.00,,,0.42,weatherlink.com 1.10,2013-04-25 03:00:00,
2013-04-24 23:30:00,37.8,29.0,30.09,West,262,5.0,9.0,71,0.00,,,0.42,weatherlink.com 1.10,2013-04-25 03:30:00,
2013-04-24 23:45:00,37.5,29.0,30.10,WNW,290,4.0,7.0,71,0.00,,,0.42,weatherlink.com 1.10,2013-04-25 03:45:00,